• In Belarus
  • List of Countries
  • For 7 days
  • Water Temperature
  • Weather Map
  • Weather Widgets
  • user-avatar
    Login

    Hourly Weather Chitl

    Today, 10 April, Friday

    Time Temperature Precipitation Wind Pressure Humidity
    00:00 +6°C° 0 mm 0 mps 701 mmHg 66%
    01:00 +6°C° 0 mm 0 mps 701 mmHg 66%
    02:00 +7°C° 0 mm 1 mps 700 mmHg 67%
    03:00 +7°C° 0 mm 1 mps 700 mmHg 67%
    04:00 +7°C° 0 mm 1 mps 700 mmHg 67%
    05:00 +6°C° 0 mm 0 mps 700 mmHg 67%
    06:00 +6°C° 0 mm 0 mps 700 mmHg 67%
    07:00 +8°C° 0 mm 1 mps 700 mmHg 60%
    08:00 +10°C° 0 mm 1 mps 700 mmHg 54%
    09:00 +11°C° 0 mm 1 mps 700 mmHg 48%
    10:00 +12°C° 0 mm 1 mps 700 mmHg 47%
    11:00 +13°C° 0 mm 2 mps 700 mmHg 46%
    12:00 +14°C° 0 mm 2 mps 699 mmHg 45%
    13:00 +14°C° 0 mm 2 mps 699 mmHg 50%
    14:00 +13°C° 0 mm 2 mps 699 mmHg 55%
    15:00 +12°C° 0 mm 3 mps 698 mmHg 60%
    16:00 +12°C° 0.1 mm 2 mps 699 mmHg 65%
    17:00 +12°C° 0.1 mm 2 mps 699 mmHg 70%
    18:00 +11°C° 0.1 mm 1 mps 699 mmHg 75%
    19:00 +10°C° 0.1 mm 1 mps 699 mmHg 78%
    20:00 +9°C° 0.1 mm 1 mps 699 mmHg 80%
    21:00 +8°C° 0.1 mm 0 mps 699 mmHg 83%
    22:00 +8°C° 0 mm 0 mps 699 mmHg 83%
    23:00 +7°C° 0 mm 0 mps 699 mmHg 84%

    Tomorrow, 11 April, Saturday

    Time Temperature Precipitation Wind Pressure Humidity
    00:00 +7°C° 0 mm 0 mps 699 mmHg 84%
    01:00 +7°C° 0 mm 0 mps 698 mmHg 83%
    02:00 +7°C° 0 mm 0 mps 698 mmHg 82%
    03:00 +6°C° 0 mm 0 mps 698 mmHg 81%
    04:00 +6°C° 0 mm 0 mps 698 mmHg 79%
    05:00 +7°C° 0 mm 0 mps 698 mmHg 78%
    06:00 +7°C° 0 mm 0 mps 698 mmHg 76%
    07:00 +9°C° 0 mm 1 mps 698 mmHg 70%
    08:00 +10°C° 0 mm 1 mps 698 mmHg 64%
    09:00 +12°C° 0 mm 1 mps 698 mmHg 58%
    10:00 +13°C° 0.1 mm 2 mps 698 mmHg 57%
    11:00 +13°C° 0.1 mm 2 mps 698 mmHg 56%
    12:00 +13°C° 0.1 mm 3 mps 698 mmHg 55%
    13:00 +12°C° 0.2 mm 3 mps 698 mmHg 60%
    14:00 +12°C° 0.2 mm 3 mps 698 mmHg 64%
    15:00 +11°C° 0.2 mm 3 mps 697 mmHg 68%
    16:00 +12°C° 0.3 mm 2 mps 698 mmHg 71%
    17:00 +10°C° 0.3 mm 2 mps 698 mmHg 74%
    18:00 +11°C° 0.3 mm 1 mps 698 mmHg 78%
    19:00 +10°C° 0.1 mm 1 mps 698 mmHg 80%
    20:00 +10°C° 0.1 mm 1 mps 699 mmHg 82%
    21:00 +9°C° 0.1 mm 1 mps 699 mmHg 84%
    22:00 +9°C° 0.4 mm 1 mps 699 mmHg 87%
    23:00 +8°C° 0.4 mm 1 mps 700 mmHg 89%

    Day after tomorrow, 12 April, Sunday

    Time Temperature Precipitation Wind Pressure Humidity
    00:00 +8°C° 0.4 mm 1 mps 700 mmHg 91%
    01:00 +8°C° 0.6 mm 1 mps 700 mmHg 92%
    02:00 +8°C° 0.6 mm 1 mps 700 mmHg 93%
    03:00 +7°C° 0.6 mm 1 mps 700 mmHg 95%
    04:00 +7°C° 0.8 mm 1 mps 701 mmHg 95%
    05:00 +7°C° 0.8 mm 1 mps 701 mmHg 95%
    06:00 +7°C° 0.8 mm 1 mps 701 mmHg 95%
    07:00 +6°C° 0.9 mm 2 mps 701 mmHg 94%
    08:00 +6°C° 0.9 mm 2 mps 701 mmHg 93%
    09:00 +6°C° 0.9 mm 2 mps 701 mmHg 93%
    10:00 +6°C° 1.2 mm 2 mps 702 mmHg 92%
    11:00 +6°C° 1.2 mm 2 mps 702 mmHg 92%
    12:00 +6°C° 1.2 mm 2 mps 702 mmHg 91%
    13:00 +6°C° 0.9 mm 2 mps 702 mmHg 90%
    14:00 +6°C° 0.9 mm 2 mps 702 mmHg 89%
    15:00 +6°C° 0.9 mm 2 mps 702 mmHg 88%
    16:00 +6°C° 0.6 mm 2 mps 702 mmHg 88%
    17:00 +6°C° 0.6 mm 2 mps 703 mmHg 88%
    18:00 +5°C° 0.6 mm 2 mps 703 mmHg 88%
    19:00 +5°C° 0.4 mm 2 mps 704 mmHg 89%
    20:00 +4°C° 0.4 mm 2 mps 704 mmHg 90%
    21:00 +3°C° 0.4 mm 2 mps 705 mmHg 91%
    22:00 +3°C° 0.1 mm 2 mps 705 mmHg 90%
    23:00 +2°C° 0.1 mm 2 mps 705 mmHg 89%

    13 April, Monday

    Time Temperature Precipitation Wind Pressure Humidity
    00:00 +1°C° 0.1 mm 2 mps 705 mmHg 88%
    01:00 +1°C° 0 mm 2 mps 705 mmHg 86%
    02:00 +1°C° 0 mm 1 mps 705 mmHg 84%
    03:00 +1°C° 0 mm 1 mps 705 mmHg 82%
    04:00 +1°C° 0 mm 1 mps 705 mmHg 81%
    05:00 +1°C° 0 mm 1 mps 706 mmHg 80%
    06:00 +2°C° 0 mm 1 mps 706 mmHg 78%
    07:00 +3°C° 0 mm 1 mps 706 mmHg 76%
    08:00 +5°C° 0 mm 1 mps 706 mmHg 74%
    09:00 +6°C° 0 mm 1 mps 707 mmHg 71%
    10:00 +7°C° 0 mm 1 mps 707 mmHg 73%
    11:00 +8°C° 0 mm 1 mps 706 mmHg 74%
    12:00 +7°C° 0 mm 2 mps 706 mmHg 76%
    13:00 +7°C° 0 mm 2 mps 706 mmHg 76%
    14:00 +8°C° 0 mm 2 mps 706 mmHg 76%
    15:00 +9°C° 0 mm 1 mps 706 mmHg 77%
    16:00 +9°C° 0 mm 1 mps 706 mmHg 78%
    17:00 +8°C° 0 mm 1 mps 706 mmHg 79%
    18:00 +8°C° 0 mm 1 mps 706 mmHg 80%
    19:00 +7°C° 0 mm 1 mps 706 mmHg 81%
    20:00 +6°C° 0 mm 1 mps 706 mmHg 82%
    21:00 +5°C° 0 mm 1 mps 706 mmHg 83%
    22:00 +5°C° 0 mm 1 mps 706 mmHg 81%
    23:00 +4°C° 0 mm 2 mps 705 mmHg 79%

    14 April, Tuesday

    Time Temperature Precipitation Wind Pressure Humidity
    00:00 +4°C° 0 mm 2 mps 705 mmHg 77%
    01:00 +3°C° 0 mm 2 mps 705 mmHg 74%
    02:00 +3°C° 0 mm 2 mps 704 mmHg 71%
    03:00 +3°C° 0 mm 2 mps 704 mmHg 68%
    04:00 +3°C° 0 mm 2 mps 704 mmHg 66%
    05:00 +4°C° 0 mm 2 mps 704 mmHg 64%
    06:00 +4°C° 0 mm 2 mps 704 mmHg 62%
    07:00 +6°C° 0 mm 2 mps 704 mmHg 59%
    08:00 +9°C° 0 mm 1 mps 704 mmHg 55%
    09:00 +11°C° 0 mm 1 mps 704 mmHg 52%
    10:00 +12°C° 0 mm 1 mps 703 mmHg 51%
    11:00 +14°C° 0 mm 1 mps 703 mmHg 49%
    12:00 +15°C° 0 mm 1 mps 703 mmHg 47%
    13:00 +15°C° 0 mm 1 mps 702 mmHg 48%
    14:00 +16°C° 0 mm 1 mps 702 mmHg 48%
    15:00 +16°C° 0 mm 1 mps 702 mmHg 48%
    16:00 +15°C° 0 mm 1 mps 702 mmHg 54%
    17:00 +14°C° 0 mm 1 mps 701 mmHg 59%
    18:00 +13°C° 0 mm 1 mps 701 mmHg 65%
    19:00 +12°C° 0 mm 1 mps 701 mmHg 63%
    20:00 +10°C° 0 mm 2 mps 701 mmHg 61%
    21:00 +8°C° 0 mm 2 mps 701 mmHg 60%
    22:00 +8°C° 0 mm 2 mps 701 mmHg 57%
    23:00 +8°C° 0 mm 2 mps 700 mmHg 55%

    15 April, Wednesday

    Time Temperature Precipitation Wind Pressure Humidity
    00:00 +7°C° 0 mm 2 mps 700 mmHg 52%
    01:00 +7°C° 0 mm 2 mps 700 mmHg 52%
    02:00 +7°C° 0 mm 2 mps 699 mmHg 52%
    03:00 +7°C° 0 mm 2 mps 699 mmHg 51%
    04:00 +7°C° 0 mm 2 mps 699 mmHg 53%
    05:00 +8°C° 0 mm 2 mps 699 mmHg 54%
    06:00 +8°C° 0 mm 2 mps 698 mmHg 55%
    07:00 +10°C° 0 mm 2 mps 698 mmHg 53%
    08:00 +13°C° 0 mm 2 mps 698 mmHg 50%
    09:00 +15°C° 0 mm 1 mps 698 mmHg 48%
    10:00 +18°C° 0 mm 1 mps 698 mmHg 44%
    11:00 +19°C° 0 mm 1 mps 698 mmHg 40%
    12:00 +20°C° 0 mm 1 mps 698 mmHg 37%
    13:00 +20°C° 0 mm 1 mps 698 mmHg 38%
    14:00 +21°C° 0 mm 1 mps 697 mmHg 39%
    15:00 +20°C° 0 mm 2 mps 697 mmHg 40%
    16:00 +20°C° 0.1 mm 1 mps 697 mmHg 46%
    17:00 +18°C° 0.1 mm 1 mps 697 mmHg 53%
    18:00 +16°C° 0.1 mm 1 mps 697 mmHg 60%
    19:00 +15°C° 0.1 mm 1 mps 698 mmHg 64%
    20:00 +14°C° 0.1 mm 1 mps 698 mmHg 68%
    21:00 +12°C° 0.1 mm 2 mps 699 mmHg 71%
    22:00 +12°C° 0.1 mm 2 mps 699 mmHg 76%
    23:00 +10°C° 0.1 mm 2 mps 699 mmHg 81%
    Show more